Showing default

HAIYANG 1C, 43609

Orbit data source: Space-Track

HAIYANG 1C, 43609 is a Chinese payload satellite in SSO that was launched on Fri, 07 Sep 2018 UTC via a CHANG ZHENG 2C launch vehicle from the Taiyaun Space Center, China (TSC). Payload-class satellites include a variety of spacecraft equipped with specific instruments for various scientific and technological missions. These include communications satellites like Starlink; space stations such as the ISS; scientific satellites like the Hubble; Earth observation satellites from companies like Planet Labs, Umbra, and HawkEye 360; GPS; miniature CubeSats for education and research; and military/defense satellites.

Loading next visibility...
Identifier
43609, 2018-068A
Orbit
SSO
Country
Flag of CNCN / PRC
Related business
Manufacturer
DFH
Mission
Operational Civil Imaging
Bus & Motor
CAST-968, Unknown motor
Mass
442 kg wet, 429 kg dry
Launch date (UTC)
2018-09-07 (8 years ago)
Launch vehicle
CHANG ZHENG 2C
Launch site
Taiyaun Space Center, China (TSC)
Object type
Payload
Rocket body
Debris
Shape & HBR
Box + 2 Pan, 3.8 m
Radar Cross Section
3.660 m², Large (>1 m²)

Expand to show TLE details & history
Last TLE update: 23 hours ago

TLE from 23 hours ago
0 HAIYANG 1C
1 43609U 18068A   26172.50077397  .00000360  00000-0  14404-3 0  9996
2 43609  98.5184 244.7470 0012131  82.9360 277.3204 14.34181088407704
Epoch: 2026-06-21T12:01Z
TLE epoch observation values (Epoch: 2026-06-21T12:01:06.871Z)
Latitude
-0°
Longitude
154.76823°
Altitude
779.633 km
Speed
7.465 km/s
True Right ascension
16h 18m 59s
True Declination
0° 00' 00"
Sunlit
Object was in full shadow at epoch
Visualization orbit readout
Latitude
Unknown
Longitude
Unknown
Altitude
Unknown
Speed
Unknown
Apparent Right ascension
Unknown
Apparent Declination
Unknown
Sunlit
N/A
Visualization observer readout
Local Sidereal Time
21:57:41
Azimuth
Unknown
Elevation
Unknown
Doppler factor
Unknown
Orbital elements
Apogee altitude
783.597 km
Perigee altitude
766.242 km
Semi-major axis
7,153.057 km
Eccentricity
0.00121
Inclination
98.5184°
RAAN
244.747°
Arg. of periapsis
82.936°
True anomaly
277.1825°
Mean anomaly
277.3204°
Eccentric anomaly
277.25145°
Mean motion
3.58761 °/min
Orbital period
100.35 mins
BSTAR
0.00014404
Loading maneuver chart data...
Computing Atmospheric mass density...
Loading historical data...
Loading historical data...
Loading historical data...
Loading historical data...
Loading historical data...
Loading historical data...
Loading historical data...
Other satellites on launch #68 in the year 2018 (2018-09-07 UTC)

Documentation

Showing up to 5 results
|